Location: Newark
(41.7772°N, 74.7403°W)
Time: 13:29:49
(UTC+00:00)

Transit 4A - Pass Details

Date: 27 May 2020
Orbit: 866 x 978 km, 66.8° (Epoch: 06 July)

Event Time Altitude Azimuth Distance (km) Brightness Sun altitude
Exits shadow 08:28:22 11° 250° (WSW) 2,469 9.5 -10.0°
Maximum altitude 08:33:22 32° 312° (NW) 1,473 8.9 -9.3°
Drops below altitude 10° 08:38:36 10° 14° (NNE) 2,562 11.1 -8.6°
Sets 08:41:25 0° 25° (NNE) 3,522 12.2 -8.2°
